This demonstration page uses our WeatherBlox Daily Observations layout. Learn more.

Left ArrowRight Arrow

Hourly Observations for March 1, 2021

Temp ( °F °C ) Dew Point ( °F °C ) Humidity (%) Winds ( mph kmh ) Pressure ( in mb ) Visibility ( mi km ) Precip ( " mm )
12:53 am 00:53 Clear 35 1.7 25 -3.9 67 67 SW 25 41 30.05 1018 10 16.0934 0 0
1:53 am 01:53 Clear 35 1.7 25 -3.9 67 67 SW 23 37 30.05 1018 10 16.0934 0 0
2:53 am 02:53 Clear 35 1.7 25 -3.9 67 67 SW 21 33 30.06 1018 10 16.0934 0 0
3:53 am 03:53 Clear 35 1.7 25 -3.9 67 67 SW 22 35 30.04 1017 10 16.0934 0 0
4:53 am 04:53 Clear 35 1.7 25 -3.9 67 67 SW 23 37 30.03 1017 10 16.0934 0 0
5:53 am 05:53 Clear 35 1.7 25 -3.9 67 67 SW 24 39 30.03 1017 10 16.0934 0 0
6:53 am 06:53 Clear 36 2.2 25 -3.9 64 64 SW 18 30 30.04 1017 10 16.0934 0 0
7:53 am 07:53 Sunny 36 2.2 25 -3.9 64 64 SW 14 22 30.05 1018 10 16.0934 0 0
8:53 am 08:53 Sunny 37 2.8 26 -3.3 65 65 SW 20 31 30.02 1017 10 16.0934 0 0
9:53 am 09:53 Sunny 39 3.9 27 -2.8 62 62 SW 20 31 30.02 1017 10 16.0934 0 0
10:53 am 10:53 Sunny 39 3.9 28 -2.2 65 65 SW 23 37 30.01 1016 10 16.0934 0 0
11:53 am 11:53 Sunny 40 4.4 29 -1.7 65 65 SW 25 41 29.99 1016 10 16.0934 0 0
12:53 pm 12:53 Sunny 41 5 29 -1.7 62 62 SW 28 44 29.97 1015 10 16.0934 0 0
1:53 pm 13:53 Sunny 42 5.6 29 -1.7 60 60 SW 26 43 29.94 1014 10 16.0934 0 0
2:53 pm 14:53 Sunny 44 6.7 31 -0.6 60 60 SW 26 43 29.93 1013 10 16.0934 0 0
3:53 pm 15:53 Sunny 43 6.1 31 -0.6 63 63 WSW 21 33 29.91 1013 10 16.0934 0 0
4:53 pm 16:53 Sunny 43 6.1 32 0 65 65 SW 17 28 29.89 1012 10 16.0934 0 0
5:53 pm 17:53 Sunny 40 4.4 33 0.6 77 77 WSW 10 17 29.88 1012 10 16.0934 0 0
6:53 pm 18:53 Clear 38 3.3 31 -0.6 76 76 SW 15 24 29.86 1011 10 16.0934 0 0
7:53 pm 19:53 Clear 41 5 30 -1.1 65 65 SW 20 31 29.84 1011 10 16.0934 0 0
8:53 pm 20:53 Clear 41 5 30 -1.1 65 65 SW 17 28 29.84 1010 10 16.0934 0 0
9:53 pm 21:53 Clear 38 3.3 30 -1.1 73 73 WSW 10 17 29.85 1011 10 16.0934 0 0
10:53 pm 22:53 Clear 38 3.3 30 -1.1 73 73 WSW 13 20 29.84 1011 10 16.0934 0 0
11:53 pm 23:53 Clear 37 2.8 29 -1.7 73 73 SW 17 28 29.83 1010 10 16.0934 0 0

Powered by AerisWeather